Find OneWeb SL0015

NORAD ID: 61594 Int'l Des: 2024-188 Owner: ONEWEBE Country: UK Constellation: oneweb operational
LEOCIRCULARPOLARONEWEB_TYPE

現在のビュー

3D地球を読み込み中...

About OneWeb SL0015

OneWeb SL0015 (NORAD 61594) is a oneweb constellation satellite launched Oct 20, 2024 by ONEWEBE of UK. It operates in LEO, CIRCULAR, POLAR, ONEWEB_TYPE orbit with a mass of 148.00 kg.

OneWeb SL0015について

説明を読み込み中...

次回通過

Passes for default location (London). Set your location on the main map for personalized predictions.

高度履歴

Loading altitude history...

軌道要素

1 61594U 24188A 26169.83538782 -.00000389 00000-0 -11339-2 0 9997
2 61594 87.8882 20.7649 0002143 73.4218 286.7145 13.11414588 84675
Epoch: Jun 18, 2026 • Age: 10 hours

現在のステータス

高度 1225.4 km
速度 7.25 km/s
衛星直下点 52.68°N, 157.33°W
打ち上げ日 Oct 20, 2024
運用期間 1.6 years
タイプ internet

技術仕様

分類 Payload
質量 148.00 kg
乾燥質量 140.00 kg
総質量 148.00 kg
長さ 1.30 m
直径 1.00 m
スパン 5.00 m
形状 Trapezoid+2 pan
製造者 ONEWUS
バスタイプ ARROW
フェーズステータス In Orbit
所有者/国 ONEWEBE/UK

Most Searched